Willimantic, CT

1:18 AM EDT on April 27, 2017 (GMT -0400)
Windham

Weather History for KIJD - February, 2014

Change the Weather History Date:

Tuesday, February 25, 2014

  Actual Average Record
Temperature  
Mean Temperature 22 °F -  
Max Temperature 28 °F 39 °F 69 °F (1985)
Min Temperature 16 °F 22 °F -5 °F (1959)
Degree Days  
Heating Degree Days 43    
Moisture  
Dew Point 6 °F    
Average Humidity 51    
Maximum Humidity 63    
Minimum Humidity 41    
Precipitation  
Precipitation 0.00 in - - ()
Sea Level Pressure  
Sea Level Pressure 29.98 in    
Wind  
Wind Speed 6 mph (West)    
Max Wind Speed 16 mph    
Max Gust Speed 21 mph    
Visibility 10 miles    
Events      
Averages and records for this station are not official NWS values.
T = Trace of Precipitation, MM = Missing Value Source: NWS Daily Summary

Daily Weather History Graph

Daily Weather History Graph

Search for Another Location

Airport or City:

Trip Planner

Search our weather history database for the weather conditions in past years. The results will help you decide how hot, cold, wet, or windy it might be!

Date:

Astronomy

Feb. 25, 2014 Rise Set
Actual Time 6:29 AM EST 5:34 PM EST
Civil Twilight 6:01 AM EST 6:02 PM EST
Nautical Twilight 5:29 AM EST 6:34 PM EST
Astronomical Twilight 4:57 AM EST 7:06 PM EST
Moon 3:24 AM EST (2/25) 1:34 PM EST (2/25)
Length of Visible Light 12h 00m
Length of Day
11h 04m
Waning Crescent, 18% of the Moon is Illuminated
Feb 25
Waning Crescent
Mar 1
New
Mar 8
First Quarter
Mar 16
Full
Mar 23
Last Quarter

Hourly Weather History & Observations

Time (EST) Temp. Windchill Dew Point Humidity Pressure Visibility Wind Dir Wind Speed Gust Speed Precip Events Conditions
12:52 AM 21.9 °F 12.5 °F 3.9 °F 46% 30.01 in 10.0 mi WNW 8.1 mph - N/A   Clear
1:52 AM 21.9 °F 11.7 °F 3.0 °F 44% 30.02 in 10.0 mi West 9.2 mph - N/A   Clear
2:52 AM 19.0 °F - 3.0 °F 50% 30.01 in 10.0 mi Calm Calm - N/A   Clear
3:52 AM 19.0 °F - 3.9 °F 52% 30.01 in 10.0 mi Calm Calm - N/A   Clear
4:52 AM 16.0 °F - 5.0 °F 62% 30.01 in 10.0 mi Calm Calm - N/A   Clear
5:52 AM 17.1 °F 11.7 °F 3.9 °F 56% 30.02 in 10.0 mi Variable 3.5 mph - N/A   Clear
6:52 AM 17.1 °F - 3.9 °F 56% 30.04 in 10.0 mi Calm Calm - N/A   Clear
7:52 AM 19.0 °F 13.9 °F 3.9 °F 52% 30.04 in 10.0 mi SW 3.5 mph - N/A   Clear
8:52 AM 21.0 °F 13.4 °F 5.0 °F 50% 30.04 in 10.0 mi West 5.8 mph - N/A   Overcast
9:52 AM 21.9 °F 11.0 °F 5.0 °F 48% 30.02 in 10.0 mi West 10.4 mph 16.1 mph N/A   Overcast
10:52 AM 23.0 °F 13.1 °F 6.1 °F 48% 30.01 in 10.0 mi WSW 9.2 mph - N/A   Overcast
11:52 AM 26.1 °F 14.5 °F 5.0 °F 41% 29.97 in 10.0 mi WSW 13.8 mph 19.6 mph N/A   Partly Cloudy
12:52 PM 27.0 °F 17.3 °F 6.1 °F 41% 29.94 in 10.0 mi WSW 10.4 mph 18.4 mph N/A   Overcast
1:52 PM 28.0 °F 17.5 °F 7.0 °F 41% 29.92 in 10.0 mi West 12.7 mph 20.7 mph N/A   Overcast
2:52 PM 28.9 °F 21.1 °F 8.1 °F 41% 29.91 in 10.0 mi West 8.1 mph - N/A   Overcast
3:52 PM 28.9 °F 21.1 °F 8.1 °F 41% 29.90 in 10.0 mi WSW 8.1 mph - N/A   Overcast
4:52 PM 28.0 °F 16.1 °F 10.0 °F 47% 29.90 in 10.0 mi NW 16.1 mph - N/A   Overcast
5:52 PM 26.1 °F 19.4 °F 15.1 °F 63% 29.93 in 10.0 mi West 5.8 mph - 0.00 in   Mostly Cloudy
6:52 PM 25.0 °F 19.3 °F 12.9 °F 60% 29.95 in 10.0 mi WNW 4.6 mph - N/A   Mostly Cloudy
7:52 PM 24.1 °F 17.0 °F 8.1 °F 51% 29.96 in 10.0 mi NW 5.8 mph - N/A   Clear
8:52 PM 23.0 °F 14.7 °F 7.0 °F 50% 29.98 in 10.0 mi WNW 6.9 mph 17.3 mph N/A   Clear
9:52 PM 21.0 °F 16.2 °F 7.0 °F 55% 29.99 in 10.0 mi NW 3.5 mph - N/A   Clear
10:52 PM 19.9 °F 14.9 °F 7.0 °F 57% 29.99 in 10.0 mi WNW 3.5 mph - N/A   Clear
11:52 PM 17.1 °F - 6.1 °F 62% 29.99 in 10.0 mi Calm Calm - N/A   Clear